Showing default

COSMOS 203, 3129

Orbit data source: Space-Track

COSMOS 203, 3129 is a payload satellite owned by OKB-10 (CIS) in LEO that was launched on Tue, 20 Feb 1968 UTC via a KOSMOS 11K65M launch vehicle from the Plesetsk Missile And Space Complex (PKMTR). Payload-class satellites include a variety of spacecraft equipped with specific instruments for various scientific and technological missions. These include communications satellites like Starlink; space stations such as the ISS; scientific satellites like the Hubble; Earth observation satellites from companies like Planet Labs, Umbra, and HawkEye 360; GPS; miniature CubeSats for education and research; and military/defense satellites.

Loading next visibility...
Identifier
3129, 1968-011A
Orbit
LEO
Country
Flag of CISCIS
Related business
Manufacturer
OKB-10
Mission
Spacecraft
Bus & Motor
KAUR-1 11F621, Unknown motor
Mass
800 kg wet, 800 kg dry
Launch date (UTC)
1968-02-20 (58 years ago)
Launch vehicle
KOSMOS 11K65M
Launch site
Plesetsk Missile And Space Complex (PKMTR)
Object type
Payload
Rocket body
Debris
Shape & HBR
Unknown
Radar Cross Section
Large (>1 m²)

Expand to show TLE details & history
Last TLE update: 16 hours ago

TLE from 16 hours ago
0 COSMOS 203
1 03129U 68011A   26126.38266718  .00000178  00000-0  50376-3 0  9999
2 03129  74.0500 156.5193 0012316 357.3583  15.0440 13.18303150800478
Epoch: 2026-05-06T09:11Z
TLE epoch observation values (Epoch: 2026-05-06T09:11:02.444Z)
Latitude
11.91764°
Longitude
157.95576°
Altitude
1,183.919 km
Speed
7.267 km/s
True Right ascension
10h 39m 50s
True Declination
11° 51' 08"
Sunlit
Object was in daylight at epoch
Visualization orbit readout
Latitude
Unknown
Longitude
Unknown
Altitude
Unknown
Speed
Unknown
Apparent Right ascension
Unknown
Apparent Declination
Unknown
Sunlit
N/A
Visualization observer readout
Local Sidereal Time
08:41:54
Azimuth
Unknown
Elevation
Unknown
Doppler factor
Unknown
Orbital elements
Apogee altitude
1,198.283 km
Perigee altitude
1,179.644 km
Semi-major axis
7,567.1 km
Eccentricity
0.00123
Inclination
74.05°
RAAN
156.5193°
Arg. of periapsis
357.3583°
True anomaly
15.08069°
Mean anomaly
15.044°
Eccentric anomaly
15.06234°
Mean motion
3.29723 °/min
Orbital period
109.18 mins
BSTAR
0.00050376
Loading maneuver chart data...
Computing Atmospheric mass density...
Loading historical data...
Loading historical data...
Loading historical data...
Loading historical data...
Loading historical data...
Loading historical data...
Loading historical data...
Other satellites on launch #11 in the year 1968 (1968-02-20 UTC)

Documentation

Showing up to 5 results
|